sat.trackr.live / text

‹ back to catalog

DONGPO 07

NORAD 53444 · 2022-098A

PAYLOAD ACTIVE UNKNOWN

§ Identity

Operator
Country
PRC
Launch date
2022-08-10
Launch site
TAISC
Launch vehicle
Mass (kg)
RCS (m²)

External: N2YO · Heavens-Above · Gunter

§ Orbital elements

Epoch: 2026-09-20T23:21:53.523360Z

Period
89.62 min
Inclination
97.5578°
Eccentricity
0.0006147
Mean motion
16.06725821 rev/d
Perigee alt
251.8 km
Apogee alt
259.9 km
Semi-major
6,634.0 km
B*
7.6760e-4
RAAN
44.6780°
Arg perigee
274.9604°
Mean anomaly
85.0976°
Rev number
22,991

§ Raw data

DONGPO 071 53444U 22098A   26263.97353615  .00578679  16716-3  76760-3 0  99942 53444  97.5578  44.6780 0006147 274.9604  85.0976 16.06725821229918

JSON: /api/v1/satellites/53444 · /tle

For live sub-satellite position, see the globe view (requires WebGL).

§ Visibility from observer

Set your observer location to see the next 7 days of passes ≥ 10°. The values pass through the URL so the page stays shareable.

No JS? Fill the form by hand. The geolocation button needs JavaScript.